User: anonymous
Location: Unspecified
(0.0000°N, 0.0000°E)
Time: 09:07:57
(UTC+00:00)
Language:

USA 200 - Orbit

View from above orbital plane
View from above orbital plane
View from above satellite
View from above satellite

Ground track
Ground track

The orbit data is extracted from the following two-line orbital elements,

1 32706U 08010A   14203.58947491 -.00000331  00000-0  00000-0 0    05
2 32706  63.1282 122.9105 6892467 267.8505  18.6565  2.00614806    05
Epoch (UTC): 22 July 2014 14:08:50
Eccentricity: 0.6892467
inclination: 63.1282°
perigee height: 1874 km
apogee height: 38481 km
right ascension of ascending node: 122.9105°
argument of perigee: 267.8505°
revolutions per day: 2.00614806
mean anomaly at epoch: 18.6565°
orbit number at epoch: 0

The dashed part of the orbit path shows where the satellite is in the earth's shadow,  

DLR